Location: Munkebjergskolens Observatorium
(55.3864°N, 10.3987°E)
Time: 05:26:50
(UTC+02:00)

KKS-1 - Pass Details

Date: 09 April 2023
Orbit: 633 x 644 km, 98.2° (Epoch: 31 May)

Event Time Altitude Azimuth Distance (km) Brightness Sun altitude
Rises 01:22:49 0° 9° (N) 2,946 ? -27.2°
Reaches altitude 10° 01:25:16 10° 357° (N) 2,033 ? -27.2°
Maximum altitude 01:28:57 27° 301° (WNW) 1,243 ? -27.2°
Enters shadow 01:29:30 26° 288° (WNW) 1,264 ? -27.2°
